sat.trackr.live / text

‹ back to catalog

BEIJING-3B

NORAD 53587 · 2022-103A

PAYLOAD ACTIVE UNKNOWN

§ Identity

Operator
Country
PRC
Launch date
2022-08-24
Launch site
TAISC
Launch vehicle
Mass (kg)
RCS (m²)

External: N2YO · Heavens-Above · Gunter

§ Orbital elements

Epoch: 2026-09-20T23:12:36.339264Z

Period
96.84 min
Inclination
97.7944°
Eccentricity
0.0026584
Mean motion
14.87047716 rev/d
Perigee alt
588.6 km
Apogee alt
625.7 km
Semi-major
6,985.3 km
B*
7.4930e-5
RAAN
339.6617°
Arg perigee
95.9590°
Mean anomaly
264.4657°
Rev number
22,132

§ Raw data

BEIJING-3B1 53587U 22103A   26263.96708726  .00000621  00000+0  74930-4 0  99952 53587  97.7944 339.6617 0026584  95.9590 264.4657 14.87047716221326

JSON: /api/v1/satellites/53587 · /tle

For live sub-satellite position, see the globe view (requires WebGL).

§ Visibility from observer

Set your observer location to see the next 7 days of passes ≥ 10°. The values pass through the URL so the page stays shareable.

No JS? Fill the form by hand. The geolocation button needs JavaScript.